Regional Weather Roundup
Issued by NWS Sioux Falls, SD

Home | Current Version | Previous Version | Graphics & Text | Print | Product List | Glossary On
Versions: 1 2 3 4 5 6 7 8 9 10 11 12 13 14 15 16 17 18 19 20 21 22 23 24 25 26 27 28 29 30 31 32 33 34 35 36 37 38 39 40 41 42 43 44 45 46 47 48 49 50
000
ASUS43 KFSD 231302
RWRFSD

WEATHER ROUNDUP FOR SE SOUTH DAKOTA/SW MINNESOTA/NW IOWA
NATIONAL WEATHER SERVICE SIOUX FALLS SD
800 AM CDT SAT AUG 23 2014

NOTE: "FAIR" INDICATES FEW OR NO CLOUDS BELOW 12,000 FEET WITH NO
SIGNIFICANT WEATHER AND OR OBSTRUCTIONS TO VISIBILITY.


SDZ038>040-050-052>070-231400-
SOUTHEAST SOUTH DAKOTA

CITY           SKY/WX    TMP DP  RH WIND       PRES   REMARKS
CHAMBERLAIN    CLOUDY    68  68  99 SE14      29.86R
HURON          CLOUDY    71  68  90 E12       29.85R
MADISON        CLOUDY    68  68 100 E8G17     29.90S
MITCHELL       CLOUDY    70  68  93 SE8       29.88R
SIOUX FALLS    CLOUDY    71  67  87 E10       29.88F
WINNER         CLOUDY    70  68  93 SE15      29.86R FOG
YANKTON        PTSUNNY   68  68 100 S5        29.89R
$$

MNZ071-072-080-081-089-090-097-098-231400-
SOUTHWEST MINNESOTA

CITY           SKY/WX    TMP DP  RH WIND       PRES   REMARKS
FAIRMONT       CLOUDY    54 N/A N/A N10       29.98F THUNDER
JACKSON        LGT RAIN  68  64  88 NE13G18   29.95F
LUVERNE        CLOUDY    70  68  94 E9        29.90F
MARSHALL       CLOUDY    68  64  88 E13G18    29.90F
MONTEVIDEO     CLOUDY    68  68 100 SE9       29.95F FOG
PIPESTONE      CLOUDY    70  64  83 E12G17    29.91R
REDWOOD FALLS  LGT RAIN  68  67  96 E7        29.99S FOG
TRACY          DRIZZLE   68  67  97 E17G25    29.89F
WINDOM         RAIN      68  66  94 NE21      29.91F
WORTHINGTON      N/A     70  12  11 E12       29.94R
$$

IAZ001>003-012>014-020>022-031-032-NEZ013-014-SDZ071-231400-
NORTHWEST IOWA

CITY           SKY/WX    TMP DP  RH WIND       PRES   REMARKS
CHEROKEE       CLOUDY    69  69 100 NE8       29.90R
DENISON        CLOUDY    70  70 100 E9        29.89R
ESTHERVILLE    LGT RAIN  68  68 100 N13       29.93F
LE MARS        CLOUDY    70  68  94 VRB3      29.89S
ORANGE CITY    CLOUDY    70  66  88 E7        29.89F
SHELDON        CLOUDY    70  68  94 NE10G18   29.89R
SIOUX CITY     CLOUDY    70  68  93 NE3       29.89R
SPENCER        CLOUDY    70  68  93 E14       29.91F
STORM LAKE     CLOUDY    68  68 100 NE7G18    29.91R
$$

ABBREVIATIONS USED IN REMARKS
   TC - TEMPERATURE IN CELSIUS
  WCI - WIND CHILL INDEX
   HX - HEAT INDEX
  VSB - VISIBILITY




USA.gov is the U.S. government's official web portal to all federal, state and local government web resources and services.